START_TIME,STEP,MOV.,M6,t_acc.,M7,t_acc.,M19,t_acc.,H36,t_acc.
1979-07-05 03:00:27.860 ,1,0,0.,12.0,0.,12.0,0.,12.0,0.,12.0
1979-07-05 03:00:39.860 ,1,0,0.,12.0,0.,12.0,0.,12.0,0.,12.0
1979-07-05 03:00:51.860 ,2,1,0.,12.0,0.,12.0,0.,12.0,0.,12.0
1979-07-05 03:01:03.860 ,2,1,0.,12.0,0.,12.0,0.,12.0,0.,12.0
1979-07-05 03:01:15.860 ,2,0,0.,12.0,0.,12.0,0.,12.0,0.,12.0
1979-07-05 03:01:27.860 ,2,0,0.,12.0,0.,12.0,0.,12.0,0.,12.0
1979-07-05 03:01:39.860 ,3,1,0.,12.0,0.,12.0,0.,12.0,0.,12.0
1979-07-05 03:01:51.860 ,3,1,0.,12.0,0.,12.0,0.,12.0,0.,12.0
1979-07-05 03:02:03.860 ,3,0,0.,12.0,0.,12.0,0.,12.0,0.,12.0
1979-07-05 03:02:15.860 ,3,0,0.,12.0,0.,12.0,0.,12.0,0.,12.0
1979-07-05 03:02:27.860 ,4,1,0.,12.0,0.,12.0,0.,12.0,0.,12.0
1979-07-05 03:02:39.860 ,4,1,0.,12.0,0.,12.0,0.,12.0,0.,12.0
1979-07-05 03:02:51.860 ,4,0,0.,12.0,0.,12.0,0.,12.0,0.,12.0
1979-07-05 03:03:03.860 ,4,0,0.,12.0,0.,12.0,0.,12.0,0.,12.0
1979-07-05 03:03:15.860 ,5,1,0.,12.0,0.,12.0,0.,12.0,0.,12.0
1979-07-05 03:03:27.860 ,5,1,0.,12.0,0.,12.0,0.,12.0,0.,12.0
1979-07-05 03:03:39.860 ,5,0,0.,12.0,0.,12.0,0.,12.0,0.,12.0
1979-07-05 03:03:51.860 ,5,0,0.,12.0,0.,12.0,0.,12.0,0.,12.0
1979-07-05 03:04:03.860 ,6,1,0.,12.0,0.,12.0,0.,12.0,0.,12.0
1979-07-05 03:04:15.860 ,6,1,0.,12.0,0.,12.0,0.,12.0,0.,12.0
1979-07-05 03:04:27.860 ,0,0,0.,12.0,0.,12.0,0.,12.0,0.,12.0
1979-07-05 03:04:39.860 ,0,0,0.,12.0,0.,12.0,0.,12.0,0.,12.0
1979-07-05 03:05:04.460 ,0,0,,0,,0,,0,,0
1979-07-05 03:05:16.460 ,0,0,,0,,0,,0,,0
1979-07-05 03:05:15.860 ,0,0,,0,,0,,0,,0
1979-07-05 03:05:27.860 ,0,0,,0,,0,,0,,0
1979-07-05 03:05:39.860 ,0,0,0.,12.0,0.,12.0,0.,12.0,0.,12.0
1979-07-05 03:05:51.860 ,0,0,0.,12.0,0.,12.0,0.,12.0,0.,12.0
1979-07-05 03:06:03.860 ,0,0,0.,12.0,0.,12.0,0.,12.0,0.,12.0
1979-07-05 03:06:15.860 ,0,0,,0,,0,,0,,0
1979-07-05 03:06:27.860 ,0,0,0.,12.0,0.,12.0,0.,12.0,0.,12.0
1979-07-05 03:06:39.860 ,0,0,0.,12.0,0.,12.0,0.,12.0,0.,12.0
1979-07-05 03:06:51.860 ,0,0,0.,12.0,0.,12.0,0.,12.0,0.,12.0
1979-07-05 03:07:03.860 ,0,0,,0,,0,,0,,0
1979-07-05 03:07:15.860 ,6,0,0.,12.0,0.,12.0,0.,12.0,0.,12.0
1979-07-05 03:07:27.860 ,6,0,,0,,0,,0,,0
1979-07-05 03:07:39.860 ,5,0,0.,12.0,0.,12.0,0.,12.0,0.,12.0
1979-07-05 03:07:51.860 ,5,0,0.,12.0,0.,12.0,0.,12.0,0.,12.0
1979-07-05 03:08:05.060 ,0,0,0.,12.0,0.,12.0,0.,12.0,0.,12.0
1979-07-05 03:08:17.060 ,0,0,,0,,0,,0,,0
1979-07-05 03:08:27.860 ,0,0,0.,12.0,0.,12.0,0.,12.0,0.,12.0
1979-07-05 03:08:39.860 ,0,0,0.,12.0,0.,12.0,0.,12.0,0.,12.0
1979-07-05 03:08:51.860 ,0,0,0.,12.0,0.,12.0,0.,12.0,0.,12.0
1979-07-05 03:09:03.860 ,0,0,0.,12.0,0.,12.0,0.,12.0,0.,12.0
1979-07-05 03:09:15.860 ,0,0,,0,,0,,0,,0
1979-07-05 03:09:27.860 ,0,0,0.,12.0,0.,12.0,0.,12.0,0.,12.0
1979-07-05 03:09:39.860 ,0,0,,0,,0,,0,,0
1979-07-05 03:09:51.860 ,0,0,0.,12.0,0.,12.0,0.,12.0,0.,12.0
1979-07-05 03:10:03.860 ,0,0,0.,12.0,0.,12.0,0.,12.0,0.,12.0
1979-07-05 03:10:15.860 ,0,0,0.,12.0,0.,12.0,0.,12.0,0.,12.0
1979-07-05 03:10:27.860 ,0,0,0.,12.0,0.,12.0,0.,12.0,0.,12.0
1979-07-05 03:10:39.860 ,0,0,0.,12.0,0.,12.0,0.,12.0,0.,12.0
1979-07-05 03:10:51.860 ,0,0,,0,,0,,0,,0
1979-07-05 03:11:03.860 ,0,0,,0,,0,,0,,0
1979-07-05 03:11:15.860 ,0,1,0.,12.0,0.,12.0,0.,12.0,0.,12.0
1979-07-05 03:11:27.860 ,0,1,0.,12.0,0.,12.0,0.,12.0,0.,12.0
1979-07-05 03:11:39.860 ,0,0,0.,12.0,0.,12.0,0.,12.0,0.,12.0
1979-07-05 03:11:51.860 ,0,0,0.,12.0,0.,12.0,0.,12.0,0.,12.0
1979-07-05 03:12:03.860 ,0,1,,0,,0,,0,,0
1979-07-05 03:12:15.860 ,0,1,0.,12.0,0.,12.0,0.,12.0,0.,12.0
1979-07-05 03:12:27.860 ,0,0,,0,,0,,0,,0
1979-07-05 03:12:39.860 ,0,0,,0,,0,,0,,0
1979-07-05 03:12:53.060 ,1,1,0.,12.0,0.,12.0,0.,12.0,0.,12.0
1979-07-05 03:13:05.060 ,1,1,0.,12.0,0.,12.0,0.,12.0,0.,12.0
1979-07-05 03:13:15.860 ,0,0,0.,12.0,0.,12.0,0.,12.0,0.,12.0
1979-07-05 03:13:27.860 ,0,0,,0,,0,,0,,0
1979-07-05 03:13:39.860 ,2,1,,0,,0,,0,,0
1979-07-05 03:13:51.860 ,2,1,,0,,0,,0,,0
1979-07-05 03:14:03.860 ,0,0,0.,12.0,0.,12.0,0.,12.0,0.,12.0
1979-07-05 03:14:15.860 ,0,0,0.,12.0,0.,12.0,0.,12.0,0.,12.0
1979-07-05 03:14:27.860 ,0,0,,0,,0,,0,,0
1979-07-05 03:14:39.860 ,0,0,,0,,0,,0,,0
1979-07-05 03:14:51.860 ,0,0,,0,,0,,0,,0
1979-07-05 03:15:03.860 ,0,0,0.,12.0,0.,12.0,0.,12.0,0.,12.0
1979-07-05 03:15:15.860 ,4,1,0.,12.0,0.,12.0,0.,12.0,0.,12.0
1979-07-05 03:15:27.860 ,4,1,0.,12.0,0.,12.0,0.,12.0,0.,12.0
1979-07-05 03:15:39.860 ,4,0,0.,12.0,0.,12.0,0.,12.0,0.,12.0
1979-07-05 03:15:51.860 ,4,0,0.,12.0,0.,12.0,0.,12.0,0.,12.0
1979-07-05 03:16:03.860 ,5,1,0.,12.0,0.,12.0,0.,12.0,0.,12.0
1979-07-05 03:16:15.860 ,5,1,0.,12.0,0.,12.0,0.,12.0,0.,12.0
1979-07-05 03:16:27.860 ,5,0,0.,12.0,0.,12.0,0.,12.0,0.,12.0
1979-07-05 03:16:39.860 ,5,0,0.,12.0,0.,12.0,0.,12.0,0.,12.0
1979-07-05 03:16:51.860 ,6,1,0.,12.0,0.,12.0,0.,12.0,0.,12.0
1979-07-05 03:17:03.860 ,6,1,0.,12.0,0.,12.0,0.,12.0,0.,12.0
1979-07-05 03:17:15.860 ,6,0,0.,12.0,0.,12.0,0.,12.0,0.,12.0
1979-07-05 03:17:27.860 ,6,0,0.,12.0,0.,12.0,0.,12.0,0.,12.0
1979-07-05 03:17:39.860 ,7,1,0.,12.0,0.,12.0,0.,12.0,0.,12.0
1979-07-05 03:17:51.860 ,7,1,0.,12.0,0.,12.0,0.,12.0,0.,12.0
1979-07-05 03:18:03.860 ,7,0,0.,12.0,0.,12.0,0.,12.0,0.,12.0
1979-07-05 03:18:15.860 ,7,0,0.,12.0,0.,12.0,0.,12.0,0.,12.0
1979-07-05 03:18:27.860 ,7,1,0.,12.0,0.,12.0,0.,12.0,0.,12.0
1979-07-05 03:18:39.860 ,7,1,0.,12.0,0.,12.0,0.,12.0,0.,12.0
1979-07-05 03:18:51.860 ,7,0,0.,12.0,0.,12.0,0.,12.0,0.,12.0
1979-07-05 03:19:03.860 ,7,0,0.,12.0,0.,12.0,0.,12.0,0.,12.0
1979-07-05 03:19:15.860 ,6,1,0.,12.0,0.,12.0,0.,12.0,0.,12.0
1979-07-05 03:19:27.860 ,6,1,0.,12.0,0.,12.0,0.,12.0,0.,12.0
1979-07-05 03:19:39.860 ,6,0,0.,12.0,0.,12.0,0.,12.0,0.,12.0
1979-07-05 03:19:51.860 ,6,0,0.,12.0,0.,12.0,0.,12.0,0.,12.0
1979-07-05 03:20:03.860 ,5,1,0.,12.0,0.,12.0,0.,12.0,0.,12.0
1979-07-05 03:20:15.860 ,5,1,0.,12.0,0.,12.0,0.,12.0,0.,12.0
1979-07-05 03:20:27.860 ,5,0,0.,12.0,0.,12.0,0.,12.0,0.,12.0
1979-07-05 03:20:39.860 ,5,0,0.,12.0,0.,12.0,0.,12.0,0.,12.0
1979-07-05 03:20:51.860 ,4,1,0.,12.0,0.,12.0,0.,12.0,0.,12.0
1979-07-05 03:21:03.860 ,4,1,0.,12.0,0.,12.0,0.,12.0,0.,12.0
1979-07-05 03:21:15.860 ,4,0,0.,12.0,0.,12.0,0.,12.0,0.,12.0
1979-07-05 03:21:27.860 ,4,0,0.,12.0,0.,12.0,0.,12.0,0.,12.0
1979-07-05 03:21:39.860 ,3,1,0.,12.0,0.,12.0,0.,12.0,0.,12.0
1979-07-05 03:21:51.860 ,3,1,0.,12.0,0.,12.0,0.,12.0,0.,12.0
1979-07-05 03:22:03.860 ,3,0,0.,12.0,0.,12.0,0.,12.0,0.,12.0
1979-07-05 03:22:15.860 ,3,0,0.,12.0,0.,12.0,0.,12.0,1.,12.0
1979-07-05 03:22:27.860 ,2,1,0.,12.0,0.,12.0,0.,12.0,0.,12.0
1979-07-05 03:22:39.860 ,2,1,0.,12.0,0.,12.0,0.,12.0,0.,12.0
1979-07-05 03:22:51.860 ,2,0,0.,12.0,0.,12.0,0.,12.0,0.,12.0
1979-07-05 03:23:03.860 ,2,0,0.,12.0,0.,12.0,0.,12.0,0.,12.0
1979-07-05 03:23:15.860 ,1,1,0.,12.0,0.,12.0,0.,12.0,0.,12.0
1979-07-05 03:23:27.860 ,1,1,0.,12.0,0.,12.0,0.,12.0,0.,12.0
1979-07-05 03:23:39.860 ,1,0,0.,12.0,0.,12.0,0.,12.0,0.,12.0
1979-07-05 03:23:51.860 ,1,0,0.,12.0,0.,12.0,0.,12.0,0.,12.0
1979-07-05 03:24:03.860 ,0,1,0.,12.0,0.,12.0,0.,12.0,0.,12.0
1979-07-05 03:24:15.860 ,0,1,0.,12.0,0.,12.0,0.,12.0,0.,12.0
1979-07-05 03:24:27.860 ,0,0,0.,12.0,0.,12.0,0.,12.0,0.,12.0
1979-07-05 03:24:39.860 ,0,0,0.,12.0,0.,12.0,0.,12.0,0.,12.0
1979-07-05 03:25:54.860 ,0,0,,0,,0,,0,,0
1979-07-05 03:26:06.860 ,0,0,0.,12.0,0.,12.0,0.,12.0,0.,12.0
1979-07-05 03:26:03.860 ,0,0,0.,12.0,0.,12.0,0.,12.0,0.,12.0
1979-07-05 03:26:15.860 ,0,0,0.,12.0,0.,12.0,0.,12.0,0.,12.0
1979-07-05 03:26:27.860 ,2,1,0.,12.0,0.,12.0,0.,12.0,0.,12.0
1979-07-05 03:26:39.860 ,2,1,0.,12.0,0.,12.0,0.,12.0,0.,12.0
1979-07-05 03:26:51.860 ,2,0,0.,12.0,0.,12.0,0.,12.0,0.,12.0
1979-07-05 03:27:03.860 ,2,0,0.,12.0,0.,12.0,0.,12.0,0.,12.0
1979-07-05 03:27:15.860 ,3,1,0.,12.0,0.,12.0,0.,12.0,0.,12.0
1979-07-05 03:27:27.860 ,3,1,0.,12.0,0.,12.0,0.,12.0,0.,12.0
1979-07-05 03:27:39.860 ,3,0,0.,12.0,0.,12.0,0.,12.0,0.,12.0
1979-07-05 03:27:51.860 ,3,0,0.,12.0,0.,12.0,0.,12.0,0.,12.0
1979-07-05 03:28:03.860 ,4,1,0.,12.0,0.,12.0,0.,12.0,0.,12.0
1979-07-05 03:28:15.860 ,4,1,0.,12.0,0.,12.0,0.,12.0,0.,12.0
1979-07-05 03:28:27.860 ,4,0,0.,12.0,0.,12.0,0.,12.0,0.,12.0
1979-07-05 03:28:39.860 ,4,0,0.,12.0,0.,12.0,0.,12.0,0.,12.0
1979-07-05 03:28:51.860 ,5,1,0.,12.0,0.,12.0,0.,12.0,0.,12.0
1979-07-05 03:29:03.860 ,5,1,0.,12.0,0.,12.0,0.,12.0,0.,12.0
1979-07-05 03:29:15.860 ,5,0,0.,12.0,0.,12.0,0.,12.0,0.,12.0
1979-07-05 03:29:27.860 ,5,0,0.,12.0,0.,12.0,0.,12.0,0.,12.0
1979-07-05 03:29:39.860 ,6,1,0.,12.0,0.,12.0,0.,12.0,0.,12.0
1979-07-05 03:29:51.860 ,6,1,0.,12.0,0.,12.0,0.,12.0,0.,12.0
1979-07-05 03:30:03.860 ,6,0,0.,12.0,0.,12.0,0.,12.0,0.,12.0
1979-07-05 03:30:15.860 ,6,0,0.,12.0,0.,12.0,0.,12.0,0.,12.0
1979-07-05 03:30:27.860 ,7,0,0.,12.0,0.,12.0,0.,12.0,0.,12.0
1979-07-05 03:30:39.860 ,7,0,0.,12.0,0.,12.0,0.,12.0,0.,12.0
1979-07-05 03:30:51.860 ,7,0,0.,12.0,0.,12.0,0.,12.0,0.,12.0
1979-07-05 03:31:03.860 ,7,0,0.,12.0,0.,12.0,0.,12.0,0.,12.0
1979-07-05 03:31:15.860 ,4,1,0.,12.0,0.,12.0,0.,12.0,0.,12.0
1979-07-05 03:31:27.860 ,4,1,0.,12.0,0.,12.0,0.,12.0,0.,12.0
1979-07-05 03:31:39.860 ,0,1,0.,12.0,0.,12.0,0.,12.0,0.,12.0
1979-07-05 03:31:51.860 ,0,1,0.,12.0,0.,12.0,0.,12.0,0.,12.0
1979-07-05 03:32:03.860 ,3,1,0.,12.0,0.,12.0,0.,12.0,0.,12.0
1979-07-05 03:32:15.860 ,3,1,0.,12.0,0.,12.0,0.,12.0,0.,12.0
1979-07-05 03:32:27.860 ,7,1,0.,12.0,0.,12.0,0.,12.0,0.,12.0
1979-07-05 03:32:39.860 ,7,1,0.,12.0,0.,12.0,0.,12.0,0.,12.0
1979-07-05 03:32:51.860 ,4,1,,0,,0,,0,,0
1979-07-05 03:33:03.860 ,4,1,0.,12.0,0.,12.0,0.,12.0,0.,12.0
1979-07-05 03:33:15.860 ,0,1,0.,12.0,0.,12.0,0.,12.0,0.,12.0
1979-07-05 03:33:27.860 ,0,1,0.,12.0,0.,12.0,0.,12.0,0.,12.0
1979-07-05 03:33:39.860 ,3,1,0.,12.0,0.,12.0,0.,12.0,0.,12.0
1979-07-05 03:33:51.860 ,3,1,0.,12.0,0.,12.0,0.,12.0,0.,12.0
1979-07-05 03:34:03.860 ,7,1,0.,12.0,0.,12.0,0.,12.0,0.,12.0
1979-07-05 03:34:15.860 ,7,1,0.,12.0,0.,12.0,0.,12.0,0.,12.0
1979-07-05 03:34:27.860 ,4,1,0.,12.0,0.,12.0,0.,12.0,0.,12.0
1979-07-05 03:34:39.860 ,4,1,0.,12.0,0.,12.0,0.,12.0,0.,12.0
1979-07-05 03:34:51.860 ,0,1,0.,12.0,0.,12.0,0.,12.0,0.,12.0
1979-07-05 03:35:03.860 ,0,1,0.,12.0,0.,12.0,0.,12.0,0.,12.0
1979-07-05 03:35:15.860 ,3,1,0.,12.0,0.,12.0,0.,12.0,0.,12.0
1979-07-05 03:35:27.860 ,3,1,0.,12.0,0.,12.0,0.,12.0,0.,12.0
1979-07-05 03:35:39.860 ,7,1,0.,12.0,0.,12.0,0.,12.0,0.,12.0
1979-07-05 03:35:51.860 ,7,1,0.,12.0,0.,12.0,0.,12.0,0.,12.0
1979-07-05 03:36:03.860 ,4,1,0.,12.0,0.,12.0,0.,12.0,0.,12.0
1979-07-05 03:36:15.860 ,4,1,0.,12.0,0.,12.0,0.,12.0,0.,12.0
1979-07-05 03:36:27.860 ,0,1,0.,12.0,0.,12.0,0.,12.0,0.,12.0
1979-07-05 03:36:39.860 ,0,1,0.,12.0,0.,12.0,0.,12.0,0.,12.0
1979-07-05 03:36:51.860 ,3,1,1.,12.0,0.,12.0,0.,12.0,0.,12.0
1979-07-05 03:37:03.860 ,3,1,0.,12.0,0.,12.0,0.,12.0,0.,12.0
1979-07-05 03:37:15.860 ,7,1,0.,12.0,0.,12.0,0.,12.0,0.,12.0
1979-07-05 03:37:27.860 ,7,1,0.,12.0,0.,12.0,0.,12.0,0.,12.0
1979-07-05 03:37:39.860 ,4,1,0.,12.0,0.,12.0,0.,12.0,0.,12.0
1979-07-05 03:37:51.860 ,4,1,0.,12.0,0.,12.0,0.,12.0,0.,12.0
1979-07-05 03:38:03.860 ,0,1,0.,12.0,0.,12.0,0.,12.0,0.,12.0
1979-07-05 03:38:15.860 ,0,1,0.,12.0,0.,12.0,0.,12.0,0.,12.0
1979-07-05 03:38:27.860 ,3,1,0.,12.0,0.,12.0,0.,12.0,0.,12.0
1979-07-05 03:38:39.860 ,3,1,0.,12.0,0.,12.0,0.,12.0,0.,12.0
1979-07-05 03:38:51.860 ,7,1,0.,12.0,0.,12.0,0.,12.0,0.,12.0
1979-07-05 03:39:03.860 ,7,1,0.,12.0,0.,12.0,0.,12.0,0.,12.0
1979-07-05 03:39:15.860 ,4,1,0.,12.0,0.,12.0,0.,12.0,0.,12.0
1979-07-05 03:39:27.860 ,4,1,0.,12.0,0.,12.0,0.,12.0,0.,12.0
1979-07-05 03:39:39.860 ,0,1,0.,12.0,0.,12.0,0.,12.0,0.,12.0
1979-07-05 03:39:51.860 ,0,1,0.,12.0,0.,12.0,0.,12.0,0.,12.0
1979-07-05 03:40:03.860 ,3,1,0.,12.0,0.,12.0,0.,12.0,0.,12.0
1979-07-05 03:40:15.860 ,3,1,0.,12.0,0.,12.0,0.,12.0,0.,12.0
1979-07-05 03:40:27.860 ,7,1,0.,12.0,0.,12.0,0.,12.0,0.,12.0
1979-07-05 03:40:39.860 ,7,1,0.,12.0,0.,12.0,0.,12.0,0.,12.0
1979-07-05 03:40:51.860 ,4,1,0.,12.0,0.,12.0,0.,12.0,0.,12.0
1979-07-05 03:41:03.860 ,4,1,0.,12.0,0.,12.0,0.,12.0,0.,12.0
1979-07-05 03:41:15.860 ,0,1,0.,12.0,0.,12.0,0.,12.0,0.,12.0
1979-07-05 03:41:27.860 ,0,1,0.,12.0,0.,12.0,0.,12.0,0.,12.0
1979-07-05 03:41:39.860 ,0,0,0.,12.0,0.,12.0,0.,12.0,0.,12.0
1979-07-05 03:41:51.860 ,0,0,0.,12.0,0.,12.0,0.,12.0,0.,12.0
1979-07-05 03:42:03.860 ,0,0,0.,12.0,0.,12.0,0.,12.0,0.,12.0
1979-07-05 03:42:15.860 ,0,0,0.,12.0,0.,12.0,0.,12.0,0.,12.0
1979-07-05 03:42:27.860 ,5,1,0.,12.0,0.,12.0,0.,12.0,0.,12.0
1979-07-05 03:42:39.860 ,5,1,0.,12.0,0.,12.0,0.,12.0,0.,12.0
1979-07-05 03:42:51.860 ,5,0,0.,12.0,0.,12.0,0.,12.0,0.,12.0
1979-07-05 03:43:03.860 ,5,0,0.,12.0,0.,12.0,0.,12.0,0.,12.0
1979-07-05 03:43:15.860 ,4,1,0.,12.0,0.,12.0,0.,12.0,0.,12.0
1979-07-05 03:43:27.860 ,4,1,0.,12.0,0.,12.0,0.,12.0,0.,12.0
1979-07-05 03:43:39.860 ,4,0,0.,12.0,0.,12.0,0.,12.0,0.,12.0
1979-07-05 03:43:51.860 ,4,0,0.,12.0,0.,12.0,0.,12.0,0.,12.0
1979-07-05 03:44:03.860 ,3,1,0.,12.0,0.,12.0,0.,12.0,0.,12.0
1979-07-05 03:44:15.860 ,3,1,0.,12.0,0.,12.0,0.,12.0,0.,12.0
1979-07-05 03:44:27.860 ,3,0,0.,12.0,0.,12.0,0.,12.0,0.,12.0
1979-07-05 03:44:39.860 ,3,0,0.,12.0,0.,12.0,0.,12.0,0.,12.0
1979-07-05 03:44:51.860 ,2,1,0.,12.0,0.,12.0,0.,12.0,0.,12.0
1979-07-05 03:45:03.860 ,2,1,0.,12.0,0.,12.0,0.,12.0,0.,12.0
1979-07-05 03:45:15.860 ,2,0,0.,12.0,0.,12.0,0.,12.0,0.,12.0
1979-07-05 03:45:27.860 ,2,0,0.,12.0,0.,12.0,0.,12.0,0.,12.0
1979-07-05 03:45:39.860 ,1,1,0.,12.0,0.,12.0,0.,12.0,0.,12.0
1979-07-05 03:45:51.860 ,1,1,0.,12.0,0.,12.0,0.,12.0,0.,12.0
1979-07-05 03:46:03.860 ,1,0,0.,12.0,0.,12.0,0.,12.0,0.,12.0
1979-07-05 03:46:15.860 ,1,0,0.,12.0,0.,12.0,0.,12.0,0.,12.0
1979-07-05 03:46:27.860 ,0,1,0.,12.0,0.,12.0,0.,12.0,0.,12.0
1979-07-05 03:46:39.860 ,0,1,0.,12.0,0.,12.0,0.,12.0,0.,12.0
1979-07-05 03:46:51.860 ,0,0,0.,12.0,0.,12.0,0.,12.0,0.,12.0
1979-07-05 03:47:03.860 ,0,0,0.,12.0,0.,12.0,0.,12.0,0.,12.0
1979-07-05 03:47:15.860 ,0,1,0.,12.0,0.,12.0,0.,12.0,0.,12.0
1979-07-05 03:47:27.860 ,0,1,0.,12.0,0.,12.0,0.,12.0,0.,12.0
1979-07-05 03:47:39.860 ,0,0,0.,12.0,0.,12.0,0.,12.0,0.,12.0
1979-07-05 03:47:51.860 ,0,0,0.,12.0,0.,12.0,0.,12.0,0.,12.0
1979-07-05 03:48:03.860 ,1,1,0.,12.0,0.,12.0,0.,12.0,0.,12.0
1979-07-05 03:48:15.860 ,1,1,0.,12.0,0.,12.0,0.,12.0,0.,12.0
1979-07-05 03:48:27.860 ,1,0,0.,12.0,0.,12.0,0.,12.0,0.,12.0
1979-07-05 03:48:39.860 ,1,0,0.,12.0,0.,12.0,0.,12.0,0.,12.0
1979-07-05 03:48:51.860 ,2,1,0.,12.0,0.,12.0,0.,12.0,0.,12.0
1979-07-05 03:49:03.860 ,2,1,0.,12.0,0.,12.0,0.,12.0,0.,12.0
1979-07-05 03:49:15.860 ,2,0,0.,12.0,0.,12.0,0.,12.0,0.,12.0
1979-07-05 03:49:27.860 ,2,0,0.,12.0,0.,12.0,0.,12.0,0.,12.0
1979-07-05 03:49:39.860 ,3,1,0.,12.0,0.,12.0,0.,12.0,0.,12.0
1979-07-05 03:49:51.860 ,3,1,0.,12.0,0.,12.0,0.,12.0,0.,12.0
1979-07-05 03:50:03.860 ,3,0,0.,12.0,0.,12.0,0.,12.0,0.,12.0
1979-07-05 03:50:15.860 ,3,0,0.,12.0,0.,12.0,0.,12.0,0.,12.0
1979-07-05 03:50:27.860 ,4,1,0.,12.0,0.,12.0,0.,12.0,0.,12.0
1979-07-05 03:50:39.860 ,4,1,0.,12.0,0.,12.0,0.,12.0,0.,12.0
1979-07-05 03:50:51.860 ,4,0,0.,12.0,0.,12.0,0.,12.0,0.,12.0
1979-07-05 03:51:03.860 ,4,0,0.,12.0,0.,12.0,0.,12.0,0.,12.0
1979-07-05 03:51:15.860 ,5,1,0.,12.0,0.,12.0,0.,12.0,0.,12.0
1979-07-05 03:51:27.860 ,5,1,0.,12.0,0.,12.0,0.,12.0,0.,12.0
1979-07-05 03:51:39.860 ,5,0,0.,12.0,0.,12.0,0.,12.0,0.,12.0
1979-07-05 03:51:51.860 ,5,0,0.,12.0,0.,12.0,0.,12.0,0.,12.0
1979-07-05 03:52:03.860 ,6,1,0.,12.0,0.,12.0,0.,12.0,0.,12.0
1979-07-05 03:52:15.860 ,6,1,0.,12.0,0.,12.0,0.,12.0,0.,12.0
1979-07-05 03:52:27.860 ,6,0,0.,12.0,0.,12.0,0.,12.0,0.,12.0
1979-07-05 03:52:39.860 ,6,0,0.,12.0,0.,12.0,0.,12.0,0.,12.0
1979-07-05 03:52:51.860 ,7,1,0.,12.0,0.,12.0,0.,12.0,0.,12.0
1979-07-05 03:53:03.860 ,7,1,0.,12.0,0.,12.0,0.,12.0,0.,12.0
1979-07-05 03:53:15.860 ,7,0,0.,12.0,0.,12.0,0.,12.0,0.,12.0
1979-07-05 03:53:27.860 ,7,0,0.,12.0,0.,12.0,0.,12.0,0.,12.0
1979-07-05 03:53:39.860 ,7,1,0.,12.0,0.,12.0,0.,12.0,0.,12.0
1979-07-05 03:53:51.860 ,7,1,0.,12.0,0.,12.0,0.,12.0,0.,12.0
1979-07-05 03:54:03.860 ,7,0,0.,12.0,0.,12.0,0.,12.0,0.,12.0
1979-07-05 03:54:15.860 ,7,0,0.,12.0,0.,12.0,0.,12.0,0.,12.0
1979-07-05 03:54:27.860 ,6,1,0.,12.0,0.,12.0,0.,12.0,0.,12.0
1979-07-05 03:54:39.860 ,6,1,0.,12.0,0.,12.0,0.,12.0,0.,12.0
1979-07-05 03:54:51.860 ,6,0,0.,12.0,0.,12.0,0.,12.0,0.,12.0
1979-07-05 03:55:03.860 ,6,0,0.,12.0,0.,12.0,0.,12.0,0.,12.0
1979-07-05 03:55:15.860 ,5,1,0.,12.0,0.,12.0,0.,12.0,0.,12.0
1979-07-05 03:55:27.860 ,5,1,0.,12.0,0.,12.0,0.,12.0,0.,12.0
1979-07-05 03:55:39.860 ,5,0,0.,12.0,0.,12.0,0.,12.0,0.,12.0
1979-07-05 03:55:51.860 ,5,0,0.,12.0,0.,12.0,0.,12.0,0.,12.0
1979-07-05 03:56:03.860 ,4,1,0.,12.0,0.,12.0,0.,12.0,0.,12.0
1979-07-05 03:56:15.860 ,4,1,0.,12.0,0.,12.0,0.,12.0,0.,12.0
1979-07-05 03:56:27.860 ,4,0,0.,12.0,0.,12.0,0.,12.0,0.,12.0
1979-07-05 03:56:39.860 ,4,0,0.,12.0,0.,12.0,0.,12.0,0.,12.0
1979-07-05 03:56:51.860 ,3,1,0.,12.0,0.,12.0,0.,12.0,0.,12.0
1979-07-05 03:57:03.860 ,3,1,0.,12.0,0.,12.0,0.,12.0,0.,12.0
1979-07-05 03:57:15.860 ,3,0,0.,12.0,0.,12.0,0.,12.0,0.,12.0
1979-07-05 03:57:27.860 ,3,0,0.,12.0,0.,12.0,0.,12.0,0.,12.0
1979-07-05 03:57:39.860 ,2,1,0.,12.0,0.,12.0,0.,12.0,0.,12.0
1979-07-05 03:57:51.860 ,2,1,0.,12.0,0.,12.0,0.,12.0,0.,12.0
1979-07-05 03:58:03.860 ,2,0,0.,12.0,0.,12.0,0.,12.0,0.,12.0
1979-07-05 03:58:15.860 ,2,0,0.,12.0,0.,12.0,0.,12.0,0.,12.0
1979-07-05 03:58:27.860 ,1,1,0.,12.0,0.,12.0,0.,12.0,0.,12.0
1979-07-05 03:58:39.860 ,1,1,0.,12.0,0.,12.0,0.,12.0,0.,12.0
1979-07-05 03:58:51.860 ,1,0,0.,12.0,0.,12.0,0.,12.0,0.,12.0
1979-07-05 03:59:03.860 ,1,0,0.,12.0,0.,12.0,0.,12.0,0.,12.0
1979-07-05 03:59:15.860 ,0,1,0.,12.0,0.,12.0,0.,12.0,0.,12.0
1979-07-05 03:59:27.860 ,0,1,0.,12.0,0.,12.0,0.,12.0,0.,12.0
1979-07-05 03:59:39.860 ,0,0,0.,12.0,0.,12.0,0.,12.0,0.,12.0
1979-07-05 03:59:51.860 ,0,0,0.,12.0,0.,12.0,0.,12.0,0.,12.0
1979-07-05 04:00:03.860 ,0,1,0.,12.0,0.,12.0,0.,12.0,0.,12.0
1979-07-05 04:00:15.860 ,0,1,0.,12.0,0.,12.0,0.,12.0,0.,12.0
1979-07-05 04:00:27.860 ,0,0,0.,12.0,0.,12.0,0.,12.0,0.,12.0
1979-07-05 04:00:39.860 ,0,0,0.,12.0,0.,12.0,0.,12.0,0.,12.0
1979-07-05 04:00:51.860 ,1,1,0.,12.0,0.,12.0,0.,12.0,0.,12.0
1979-07-05 04:01:03.860 ,1,1,0.,12.0,0.,12.0,0.,12.0,0.,12.0
1979-07-05 04:01:15.860 ,1,0,0.,12.0,0.,12.0,0.,12.0,0.,12.0
1979-07-05 04:01:27.860 ,1,0,0.,12.0,0.,12.0,0.,12.0,0.,12.0
1979-07-05 04:01:39.860 ,2,1,0.,12.0,0.,12.0,0.,12.0,0.,12.0
1979-07-05 04:01:51.860 ,2,1,0.,12.0,0.,12.0,0.,12.0,0.,12.0
1979-07-05 04:02:03.860 ,2,0,0.,12.0,0.,12.0,0.,12.0,0.,12.0
1979-07-05 04:02:15.860 ,2,0,0.,12.0,0.,12.0,0.,12.0,0.,12.0
1979-07-05 04:02:27.860 ,3,1,0.,12.0,0.,12.0,0.,12.0,0.,12.0
1979-07-05 04:02:39.860 ,3,1,0.,12.0,0.,12.0,0.,12.0,0.,12.0
1979-07-05 04:02:51.860 ,3,0,0.,12.0,0.,12.0,0.,12.0,0.,12.0
1979-07-05 04:03:03.860 ,3,0,0.,12.0,0.,12.0,0.,12.0,0.,12.0
1979-07-05 04:03:15.860 ,4,1,0.,12.0,0.,12.0,0.,12.0,0.,12.0
1979-07-05 04:03:27.860 ,4,1,0.,12.0,0.,12.0,0.,12.0,0.,12.0
1979-07-05 04:03:39.860 ,4,0,0.,12.0,0.,12.0,0.,12.0,0.,12.0
1979-07-05 04:03:51.860 ,4,0,0.,12.0,0.,12.0,0.,12.0,0.,12.0
1979-07-05 04:04:03.860 ,5,1,0.,12.0,0.,12.0,0.,12.0,0.,12.0
1979-07-05 04:04:15.860 ,5,1,0.,12.0,0.,12.0,0.,12.0,0.,12.0
1979-07-05 04:04:27.860 ,5,0,0.,12.0,0.,12.0,0.,12.0,0.,12.0
1979-07-05 04:04:39.860 ,5,0,0.,12.0,0.,12.0,0.,12.0,0.,12.0
1979-07-05 04:04:51.860 ,6,1,0.,12.0,0.,12.0,0.,12.0,0.,12.0
1979-07-05 04:05:03.860 ,6,1,0.,12.0,0.,12.0,0.,12.0,0.,12.0
1979-07-05 04:05:15.860 ,6,0,0.,12.0,0.,12.0,0.,12.0,0.,12.0
1979-07-05 04:05:27.860 ,6,0,0.,12.0,0.,12.0,0.,12.0,0.,12.0
1979-07-05 04:05:39.860 ,7,1,0.,12.0,0.,12.0,0.,12.0,0.,12.0
1979-07-05 04:05:51.860 ,7,1,0.,12.0,0.,12.0,0.,12.0,0.,12.0
1979-07-05 04:06:03.860 ,7,0,0.,12.0,0.,12.0,0.,12.0,0.,12.0
1979-07-05 04:06:15.860 ,7,0,0.,12.0,0.,12.0,0.,12.0,0.,12.0
1979-07-05 04:06:27.860 ,7,1,0.,12.0,0.,12.0,0.,12.0,0.,12.0
1979-07-05 04:06:39.860 ,7,1,0.,12.0,0.,12.0,0.,12.0,0.,12.0
1979-07-05 04:06:51.860 ,7,0,0.,12.0,0.,12.0,0.,12.0,0.,12.0
1979-07-05 04:07:03.860 ,7,0,0.,12.0,0.,12.0,0.,12.0,0.,12.0
1979-07-05 04:07:15.860 ,6,1,0.,12.0,0.,12.0,0.,12.0,0.,12.0
1979-07-05 04:07:27.860 ,6,1,0.,12.0,0.,12.0,0.,12.0,0.,12.0
1979-07-05 04:07:39.860 ,6,0,0.,12.0,0.,12.0,0.,12.0,0.,12.0
1979-07-05 04:07:51.860 ,6,0,0.,12.0,0.,12.0,0.,12.0,0.,12.0
1979-07-05 04:08:03.860 ,5,1,0.,12.0,0.,12.0,0.,12.0,0.,12.0
1979-07-05 04:08:15.860 ,5,1,0.,12.0,0.,12.0,0.,12.0,0.,12.0
1979-07-05 04:08:27.860 ,5,0,0.,12.0,0.,12.0,0.,12.0,0.,12.0
1979-07-05 04:08:39.860 ,5,0,0.,12.0,0.,12.0,0.,12.0,0.,12.0
1979-07-05 04:08:51.860 ,4,1,0.,12.0,0.,12.0,0.,12.0,0.,12.0
1979-07-05 04:09:03.860 ,4,1,0.,12.0,0.,12.0,0.,12.0,0.,12.0
1979-07-05 04:09:15.860 ,4,0,0.,12.0,0.,12.0,0.,12.0,0.,12.0
1979-07-05 04:09:27.860 ,4,0,0.,12.0,0.,12.0,0.,12.0,0.,12.0
1979-07-05 04:09:39.860 ,3,1,0.,12.0,0.,12.0,0.,12.0,0.,12.0
1979-07-05 04:09:51.860 ,3,1,0.,12.0,0.,12.0,0.,12.0,0.,12.0
1979-07-05 04:10:03.860 ,3,0,0.,12.0,0.,12.0,0.,12.0,0.,12.0
1979-07-05 04:10:15.860 ,3,0,0.,12.0,0.,12.0,0.,12.0,0.,12.0
1979-07-05 04:10:27.860 ,2,1,0.,12.0,0.,12.0,0.,12.0,0.,12.0
1979-07-05 04:10:39.860 ,2,1,0.,12.0,0.,12.0,0.,12.0,0.,12.0
1979-07-05 04:10:51.860 ,2,0,0.,12.0,0.,12.0,0.,12.0,0.,12.0
1979-07-05 04:11:03.860 ,2,0,0.,12.0,0.,12.0,0.,12.0,0.,12.0
1979-07-05 04:11:15.860 ,1,1,0.,12.0,0.,12.0,0.,12.0,0.,12.0
1979-07-05 04:11:27.860 ,1,1,0.,12.0,0.,12.0,0.,12.0,0.,12.0
1979-07-05 04:11:39.860 ,1,0,0.,12.0,0.,12.0,0.,12.0,0.,12.0
1979-07-05 04:11:51.860 ,1,0,0.,12.0,0.,12.0,0.,12.0,0.,12.0
1979-07-05 04:12:03.860 ,0,1,0.,12.0,0.,12.0,0.,12.0,0.,12.0
1979-07-05 04:12:15.860 ,0,1,0.,12.0,0.,12.0,0.,12.0,0.,12.0
1979-07-05 04:12:27.860 ,0,0,0.,12.0,0.,12.0,0.,12.0,0.,12.0
1979-07-05 04:12:39.860 ,0,0,0.,12.0,0.,12.0,0.,12.0,0.,12.0
1979-07-05 04:12:51.860 ,0,1,0.,12.0,0.,12.0,0.,12.0,0.,12.0
1979-07-05 04:13:03.860 ,0,1,0.,12.0,0.,12.0,0.,12.0,0.,12.0
1979-07-05 04:13:15.860 ,0,0,0.,12.0,0.,12.0,0.,12.0,0.,12.0
1979-07-05 04:13:27.860 ,0,0,0.,12.0,0.,12.0,0.,12.0,0.,12.0
1979-07-05 04:13:39.860 ,1,1,0.,12.0,0.,12.0,0.,12.0,0.,12.0
1979-07-05 04:13:51.860 ,1,1,0.,12.0,0.,12.0,0.,12.0,0.,12.0
1979-07-05 04:14:03.860 ,1,0,0.,12.0,0.,12.0,0.,12.0,0.,12.0
1979-07-05 04:14:15.860 ,1,0,0.,12.0,0.,12.0,0.,12.0,0.,12.0
1979-07-05 04:14:27.860 ,2,1,0.,12.0,0.,12.0,0.,12.0,0.,12.0
1979-07-05 04:14:39.860 ,2,1,0.,12.0,0.,12.0,0.,12.0,0.,12.0
1979-07-05 04:14:51.860 ,2,0,0.,12.0,0.,12.0,0.,12.0,0.,12.0
1979-07-05 04:15:03.860 ,2,0,0.,12.0,0.,12.0,0.,12.0,0.,12.0
1979-07-05 04:15:15.860 ,3,1,0.,12.0,0.,12.0,0.,12.0,0.,12.0
1979-07-05 04:15:27.860 ,3,1,0.,12.0,0.,12.0,0.,12.0,0.,12.0
1979-07-05 04:15:39.860 ,3,0,0.,12.0,0.,12.0,0.,12.0,0.,12.0
1979-07-05 04:15:51.860 ,3,0,0.,12.0,0.,12.0,0.,12.0,0.,12.0
1979-07-05 04:16:03.860 ,4,1,0.,12.0,0.,12.0,0.,12.0,0.,12.0
1979-07-05 04:16:15.860 ,4,1,0.,12.0,0.,12.0,0.,12.0,0.,12.0
1979-07-05 04:16:27.860 ,4,0,0.,12.0,0.,12.0,0.,12.0,0.,12.0
1979-07-05 04:16:39.860 ,4,0,0.,12.0,0.,12.0,0.,12.0,0.,12.0
1979-07-05 04:16:51.860 ,5,1,0.,12.0,0.,12.0,0.,12.0,0.,12.0
1979-07-05 04:17:03.860 ,5,1,0.,12.0,0.,12.0,0.,12.0,0.,12.0
1979-07-05 04:17:15.860 ,5,0,0.,12.0,0.,12.0,0.,12.0,0.,12.0
1979-07-05 04:17:27.860 ,5,0,0.,12.0,0.,12.0,0.,12.0,0.,12.0
1979-07-05 04:17:39.860 ,6,1,0.,12.0,0.,12.0,0.,12.0,0.,12.0
1979-07-05 04:17:51.860 ,6,1,0.,12.0,0.,12.0,0.,12.0,0.,12.0
1979-07-05 04:18:03.860 ,6,0,0.,12.0,0.,12.0,0.,12.0,0.,12.0
1979-07-05 04:18:15.860 ,6,0,0.,12.0,0.,12.0,0.,12.0,0.,12.0
1979-07-05 04:18:27.860 ,7,0,0.,12.0,0.,12.0,0.,12.0,0.,12.0
1979-07-05 04:18:39.860 ,7,0,0.,12.0,0.,12.0,0.,12.0,0.,12.0
1979-07-05 04:18:51.860 ,7,0,0.,12.0,0.,12.0,0.,12.0,0.,12.0
1979-07-05 04:19:03.860 ,7,0,0.,12.0,0.,12.0,0.,12.0,0.,12.0
1979-07-05 04:19:15.860 ,4,1,0.,12.0,0.,12.0,0.,12.0,0.,12.0
1979-07-05 04:19:27.860 ,4,1,0.,12.0,0.,12.0,0.,12.0,0.,12.0
1979-07-05 04:19:39.860 ,0,1,0.,12.0,0.,12.0,0.,12.0,0.,12.0